When you browse on this site, cookies collect data to enhance your experience and personalize the content and advertising you see.
Visit our Privacy Policy to learn more. By continuing to use the site, you agree to this use of cookies and data.
  • Em Portugal
  • Lista de países
  • Para 7 dias
  • Temperatura da água
  • Mapas de satélite
  • Mapa do tempo
  • Widgets de tempo
  • user-avatar
    Iniciar Sessão

    Previsão horária em Aymazimahi

    Hoje, 25 Junho, Terça-feira

    Tempo Temperatura Precipitação Vento Pressão Humidade
    00:00 +20°C° 0 mm 1 m/s 652 mmHg 69%
    01:00 +18°C° 0.1 mm 2 m/s 652 mmHg 70%
    02:00 +18°C° 0.1 mm 2 m/s 652 mmHg 70%
    03:00 +17°C° 0 mm 2 m/s 652 mmHg 73%
    04:00 +18°C° 0 mm 2 m/s 652 mmHg 70%
    05:00 +19°C° 0 mm 2 m/s 653 mmHg 67%
    06:00 +21°C° 0 mm 1 m/s 653 mmHg 64%
    07:00 +23°C° 0 mm 1 m/s 654 mmHg 60%
    08:00 +24°C° 0 mm 2 m/s 654 mmHg 57%
    09:00 +26°C° 0 mm 2 m/s 654 mmHg 53%
    10:00 +26°C° 0.4 mm 2 m/s 655 mmHg 54%
    11:00 +27°C° 0.4 mm 3 m/s 655 mmHg 55%
    12:00 +27°C° 0.4 mm 3 m/s 655 mmHg 56%
    13:00 +27°C° 0.7 mm 3 m/s 655 mmHg 58%
    14:00 +27°C° 0.7 mm 2 m/s 654 mmHg 59%
    15:00 +26°C° 0.7 mm 2 m/s 654 mmHg 60%
    16:00 +26°C° 0.2 mm 2 m/s 654 mmHg 62%
    17:00 +26°C° 0.2 mm 1 m/s 654 mmHg 63%
    18:00 +25°C° 0.2 mm 1 m/s 654 mmHg 65%
    19:00 +24°C° 0.2 mm 2 m/s 654 mmHg 68%
    20:00 +21°C° 0.2 mm 2 m/s 653 mmHg 71%
    21:00 +20°C° 0.2 mm 2 m/s 653 mmHg 74%
    22:00 +19°C° 0 mm 2 m/s 653 mmHg 73%
    23:00 +19°C° 0 mm 2 m/s 653 mmHg 72%

    Amanhã, 26 Junho, Quarta-feira

    Tempo Temperatura Precipitação Vento Pressão Humidade
    00:00 +19°C° 0 mm 2 m/s 653 mmHg 72%
    01:00 +19°C° 0.2 mm 2 m/s 652 mmHg 72%
    02:00 +18°C° 0.2 mm 2 m/s 652 mmHg 73%
    03:00 +18°C° 0.2 mm 2 m/s 652 mmHg 73%
    04:00 +18°C° 0.2 mm 2 m/s 653 mmHg 72%
    05:00 +19°C° 0.2 mm 2 m/s 653 mmHg 70%
    06:00 +20°C° 0.2 mm 2 m/s 653 mmHg 68%
    07:00 +21°C° 0.6 mm 2 m/s 654 mmHg 65%
    08:00 +22°C° 0.6 mm 3 m/s 655 mmHg 62%
    09:00 +25°C° 0.6 mm 3 m/s 655 mmHg 59%
    10:00 +25°C° 1.1 mm 3 m/s 655 mmHg 62%
    11:00 +25°C° 1.1 mm 4 m/s 655 mmHg 64%
    12:00 +23°C° 1.1 mm 4 m/s 655 mmHg 66%
    13:00 +22°C° 1.1 mm 3 m/s 655 mmHg 72%
    14:00 +21°C° 1.1 mm 3 m/s 654 mmHg 78%
    15:00 +20°C° 1.1 mm 2 m/s 654 mmHg 85%
    16:00 +20°C° 0.4 mm 2 m/s 654 mmHg 85%
    17:00 +20°C° 0.4 mm 2 m/s 654 mmHg 85%
    18:00 +21°C° 0.4 mm 1 m/s 653 mmHg 85%
    19:00 +20°C° 0.6 mm 1 m/s 653 mmHg 88%
    20:00 +19°C° 0.6 mm 1 m/s 653 mmHg 91%
    21:00 +18°C° 0.6 mm 1 m/s 653 mmHg 95%
    22:00 +18°C° 0.8 mm 1 m/s 653 mmHg 94%
    23:00 +18°C° 0.8 mm 1 m/s 653 mmHg 93%

    Depois de amanhã, 27 Junho, Quinta-feira

    Tempo Temperatura Precipitação Vento Pressão Humidade
    00:00 +16°C° 0.8 mm 1 m/s 653 mmHg 92%
    01:00 +16°C° 0.1 mm 1 m/s 652 mmHg 90%
    02:00 +14°C° 0.1 mm 0 m/s 652 mmHg 89%
    03:00 +14°C° 0.1 mm 0 m/s 652 mmHg 87%
    04:00 +15°C° 0 mm 0 m/s 652 mmHg 85%
    05:00 +15°C° 0 mm 0 m/s 652 mmHg 82%
    06:00 +16°C° 0 mm 0 m/s 652 mmHg 79%
    07:00 +19°C° 0.1 mm 1 m/s 652 mmHg 73%
    08:00 +20°C° 0.1 mm 1 m/s 653 mmHg 66%
    09:00 +21°C° 0.1 mm 2 m/s 653 mmHg 60%
    10:00 +21°C° 0.2 mm 3 m/s 653 mmHg 59%
    11:00 +21°C° 0.2 mm 3 m/s 652 mmHg 58%
    12:00 +21°C° 0.2 mm 3 m/s 652 mmHg 57%
    13:00 +21°C° 0.3 mm 3 m/s 652 mmHg 60%
    14:00 +20°C° 0.3 mm 2 m/s 651 mmHg 63%
    15:00 +20°C° 0.3 mm 2 m/s 651 mmHg 65%
    16:00 +20°C° 0.2 mm 2 m/s 651 mmHg 67%
    17:00 +19°C° 0.2 mm 2 m/s 650 mmHg 69%
    18:00 +19°C° 0.2 mm 2 m/s 650 mmHg 72%
    19:00 +18°C° 0.2 mm 1 m/s 650 mmHg 76%
    20:00 +16°C° 0.2 mm 1 m/s 649 mmHg 80%
    21:00 +15°C° 0.2 mm 1 m/s 649 mmHg 84%
    22:00 +15°C° 0 mm 1 m/s 648 mmHg 84%
    23:00 +15°C° 0 mm 1 m/s 648 mmHg 85%

    28 Junho, Sexta-feira

    Tempo Temperatura Precipitação Vento Pressão Humidade
    00:00 +15°C° 0 mm 1 m/s 648 mmHg 85%
    01:00 +14°C° 0 mm 1 m/s 648 mmHg 85%
    02:00 +14°C° 0 mm 1 m/s 647 mmHg 85%
    03:00 +14°C° 0 mm 1 m/s 647 mmHg 85%
    04:00 +15°C° 0 mm 1 m/s 647 mmHg 82%
    05:00 +16°C° 0 mm 1 m/s 647 mmHg 79%
    06:00 +18°C° 0 mm 1 m/s 647 mmHg 76%
    07:00 +18°C° 0 mm 2 m/s 648 mmHg 71%
    08:00 +19°C° 0 mm 2 m/s 648 mmHg 65%
    09:00 +21°C° 0 mm 3 m/s 648 mmHg 60%
    10:00 +21°C° 0.1 mm 3 m/s 648 mmHg 58%
    11:00 +22°C° 0.1 mm 3 m/s 648 mmHg 57%
    12:00 +23°C° 0.1 mm 4 m/s 648 mmHg 55%
    13:00 +22°C° 0.2 mm 4 m/s 647 mmHg 55%
    14:00 +22°C° 0.2 mm 4 m/s 647 mmHg 55%
    15:00 +22°C° 0.2 mm 3 m/s 647 mmHg 55%
    16:00 +21°C° 0.2 mm 3 m/s 646 mmHg 60%
    17:00 +21°C° 0.2 mm 2 m/s 646 mmHg 65%
    18:00 +20°C° 0.2 mm 2 m/s 646 mmHg 69%
    19:00 +20°C° 0 mm 1 m/s 646 mmHg 72%
    20:00 +18°C° 0 mm 1 m/s 645 mmHg 75%
    21:00 +16°C° 0 mm 1 m/s 645 mmHg 78%
    22:00 +16°C° 0 mm 1 m/s 645 mmHg 77%
    23:00 +16°C° 0 mm 1 m/s 645 mmHg 76%

    29 Junho, Sábado

    Tempo Temperatura Precipitação Vento Pressão Humidade
    00:00 +16°C° 0 mm 1 m/s 645 mmHg 76%
    01:00 +16°C° 0 mm 1 m/s 645 mmHg 75%
    02:00 +16°C° 0 mm 1 m/s 645 mmHg 74%
    03:00 +16°C° 0 mm 1 m/s 645 mmHg 74%
    04:00 +16°C° 0 mm 1 m/s 645 mmHg 72%
    05:00 +18°C° 0 mm 1 m/s 645 mmHg 71%
    06:00 +17°C° 0 mm 0 m/s 646 mmHg 70%
    07:00 +20°C° 0 mm 1 m/s 646 mmHg 68%
    08:00 +20°C° 0 mm 1 m/s 646 mmHg 67%
    09:00 +20°C° 0 mm 2 m/s 646 mmHg 66%
    10:00 +21°C° 0.5 mm 2 m/s 646 mmHg 66%
    11:00 +21°C° 0.5 mm 3 m/s 646 mmHg 65%
    12:00 +22°C° 0.5 mm 4 m/s 646 mmHg 65%
    13:00 +21°C° 0.5 mm 3 m/s 646 mmHg 68%
    14:00 +20°C° 0.5 mm 3 m/s 646 mmHg 71%
    15:00 +19°C° 0.5 mm 3 m/s 646 mmHg 74%
    16:00 +19°C° 0.1 mm 2 m/s 646 mmHg 76%
    17:00 +18°C° 0.1 mm 2 m/s 646 mmHg 77%
    18:00 +18°C° 0.1 mm 2 m/s 646 mmHg 79%
    19:00 +17°C° 0 mm 2 m/s 646 mmHg 83%
    20:00 +17°C° 0 mm 2 m/s 646 mmHg 86%
    21:00 +16°C° 0 mm 2 m/s 647 mmHg 90%
    22:00 +15°C° 0.2 mm 2 m/s 647 mmHg 91%
    23:00 +15°C° 0.2 mm 2 m/s 647 mmHg 91%

    30 Junho, Domingo

    Tempo Temperatura Precipitação Vento Pressão Humidade
    00:00 +15°C° 0.2 mm 2 m/s 646 mmHg 92%
    01:00 +14°C° 1.2 mm 2 m/s 646 mmHg 93%
    02:00 +14°C° 1.2 mm 2 m/s 646 mmHg 93%
    03:00 +14°C° 1.2 mm 2 m/s 646 mmHg 94%
    04:00 +14°C° 0.1 mm 1 m/s 646 mmHg 91%
    05:00 +14°C° 0.1 mm 1 m/s 646 mmHg 89%
    06:00 +14°C° 0.1 mm 1 m/s 646 mmHg 86%
    07:00 +15°C° 0 mm 1 m/s 646 mmHg 84%
    08:00 +15°C° 0 mm 2 m/s 646 mmHg 81%
    09:00 +16°C° 0 mm 2 m/s 647 mmHg 79%
    10:00 +16°C° 0 mm 2 m/s 646 mmHg 79%
    11:00 +16°C° 0 mm 2 m/s 646 mmHg 80%
    12:00 +16°C° 0 mm 2 m/s 646 mmHg 81%
    13:00 +16°C° 0 mm 2 m/s 646 mmHg 82%
    14:00 +16°C° 0 mm 2 m/s 646 mmHg 84%
    15:00 +16°C° 0 mm 2 m/s 646 mmHg 85%
    16:00 +15°C° 0.3 mm 2 m/s 646 mmHg 88%
    17:00 +14°C° 0.3 mm 2 m/s 646 mmHg 91%
    18:00 +13°C° 0.3 mm 3 m/s 646 mmHg 94%
    19:00 +12°C° 2 mm 3 m/s 646 mmHg 95%
    20:00 +12°C° 2 mm 3 m/s 647 mmHg 95%
    21:00 +11°C° 2 mm 3 m/s 647 mmHg 96%
    22:00 +12°C° 3 mm 2 m/s 647 mmHg 95%
    23:00 +12°C° 3 mm 2 m/s 647 mmHg 95%
    Mostrar mais